Regional Weather Roundup
Issued by NWS

Home | Current Version | Previous Version | Text Only | Print | Product List | Glossary Off
Versions: 1 2 3 4 5 6 7 8 9 10 11 12 13 14 15 16 17 18 19 20 21 22 23 24 25 26 27 28 29 30 31 32 33 34 35 36 37 38 39 40 41 42 43 44 45 46 47 48 49 50

000
ASUS43 KMKX 250411
RWRWI

WISCONSIN REGIONAL WEATHER ROUNDUP
NATIONAL WEATHER SERVICE MILWAUKEE/SULLIVAN WI
1100 PM CDT FRI OCT 24 2014

NOTE: "FAIR" INDICATES FEW OR NO CLOUDS BELOW 12,000 FEET WITH NO
SIGNIFICANT WEATHER AND/OR OBSTRUCTIONS TO VISIBILITY.

WIZ001-002-006>008-014>016-023>028-250500-
NORTHWEST WISCONSIN

CITY           SKY/WX    TMP DP  RH WIND       PRES   REMARKS
SUPERIOR ARPT  MOCLDY    57  48  71 SW8       29.77R
ASHLAND        MOCLDY    57  52  83 SW10      29.75F
HAYWARD        MOCLDY    53  51  93 SW7       29.81S FOG
SIREN          PTCLDY    56  51  85 SW6       29.82S
CUMBERLAND     CLOUDY    50  50 100 SW5       29.84S FOG
RICE LAKE      CLOUDY    55  53  94 S3        29.86S FOG
CHETEK         CLOUDY    55  55  97 S3        29.84F FOG
LADYSMITH      CLOUDY    56  55  94 SW9       29.85F FOG
EAU CLAIRE     FOG       50  49  96 SW6       29.85F VSB 1/4
MENOMONIE      FOG       51  51  99 CALM      29.86S VSB<1/4
NEW RICHMOND     N/A     51  51 100 S5        29.85S FOG
OSCEOLA        FOG       49  49 100 CALM      29.87S VSB 1
$$

WIZ003>005-009-010-017-018-250500-
NORTH CENTRAL WISCONSIN

CITY           SKY/WX    TMP DP  RH WIND       PRES   REMARKS
MANITOWISH WTR CLOUDY    54  52  93 SW8       29.79F
ARBOR VITAE    CLOUDY    57  53  88 SW8       29.80F
WOODRUFF       CLOUDY    57  53  88 SW8       29.80F
RHINELANDER    CLOUDY    53  51  93 SW10      29.83F
EAGLE RIVER    CLOUDY    53  47  82 SW8       29.79F
LAND O LAKES   PTCLDY    54  49  85 SW7       29.79F
PHILLIPS       CLOUDY    55  52  91 SW9       29.82F
TOMAHAWK       CLOUDY    54  52  92 CALM      29.84F
MEDFORD        CLOUDY    54  53  96 SW5       29.85F FOG
MERRILL        CLOUDY    56  54  95 W12       29.85S
$$

WIZ029-030-035-036-043>047-250500-
CENTRAL WISCONSIN

CITY           SKY/WX    TMP DP  RH WIND       PRES   REMARKS
WAUSAU         CLOUDY    56  53  90 W8        29.85S
MOSINEE        CLOUDY    54  54 100 W7        29.87S
MARSHFIELD     CLOUDY    57  54  89 W10       29.86F FOG
STEVENS POINT  CLOUDY    54  53  95 W7        29.87S
WAUPACA        CLOUDY    58  54  88 SW7       29.85F
WAUTOMA        CLOUDY    55  52  90 SW5       29.88F
WISC RAPIDS    CLOUDY    57  55  93 SW8       29.88F
CAMP DOUGLAS   NOT AVBL
$$

WIZ011>013-019>022-031-037>040-048>050-250500-
NORTHEAST WISCONSIN

CITY           SKY/WX    TMP DP  RH WIND       PRES   REMARKS
ANTIGO         CLOUDY    53  52  95 W12       29.85R
SHAWANO        MOCLDY    54  50  88 SW3       29.84F
OCONTO         PTCLDY    49  49 100 S3        29.82F
STURGEON BAY   CLOUDY    52  48  87 S10       29.85F
GREEN BAY      CLOUDY    55  51  86 S7        29.85F
MANITOWOC      CLOUDY    53  51  93 S8        29.87F
APPLETON       CLOUDY    54  50  87 SW6       29.86F
CLINTONVILLE   MOCLDY    50  48  93 SW5       29.84F
OSHKOSH        MOCLDY    55  51  86 SW8       29.86F
$$

WIZ032>034-041-042-053>061-250500-
SOUTHWEST WISCONSIN

CITY           SKY/WX    TMP DP  RH WIND       PRES   REMARKS
LA CROSSE      CLOUDY    59  56  89 S6        29.89S
SPARTA         FOG       49  48  97 CALM      29.90S VSB 1/2
VIROQUA        CLOUDY    56  56 100 SW6       29.91S
BOSCOBEL       MOCLDY    58  55  90 SW7       29.92F FOG
PRAIRIE DU CHI CLOUDY    59  57  92 SW5       29.92S FOG
PLATTEVILLE    CLOUDY    58  56  94 SW7       29.94S
$$

WIZ056-057-062-063-064-067-068-250500-
SOUTH CENTRAL WISCONSIN

CITY           SKY/WX    TMP DP  RH WIND       PRES   REMARKS
REEDSBURG      MOCLDY    56  55  96 SW7       29.89F FOG
BARABOO/DELLS  MOCLDY    56  53  89 SW5       29.89F FOG
LONE ROCK      MOCLDY    60  54  80 W3        29.90F HAZE
MINERAL POINT  CLOUDY    59  55  88 W7        29.92S FOG
MADISON        MOCLDY    55  50  83 CALM      29.90F
MIDDLETON      CLOUDY    59  53  79 W5        29.91F
WATERTOWN      MOCLDY    54  52  92 SW3       29.89F
MONROE         CLOUDY    57  52  82 SW10      29.92S
JANESVILLE     CLOUDY    55  46  71 SW6       29.92S
$$

WIZ051-052-058>065-066-070>072-250500-
SOUTHEAST WISCONSIN

CITY           SKY/WX    TMP DP  RH WIND       PRES   REMARKS
MILWAUKEE      CLOUDY    56  50  80 S7        29.91F
WAUKESHA       CLOUDY    54  50  87 S6        29.92S
MILWAUKEE/TIMM CLOUDY    55  48  76 S3        29.91S
RACINE         CLOUDY    55  51  86 S5        29.93F FOG
BURLINGTON     CLOUDY    52  51  96 CALM      29.92S
KENOSHA        CLOUDY    55  51  86 SW3       29.92F FOG
FOND DU LAC    CLOUDY    56  49  77 SW10      29.88F
SHEBOYGAN      CLOUDY    53  50  89 S6        29.88F
WEST BEND      CLOUDY    57  46  67 S8        29.88F
JUNEAU         CLOUDY    54  50  88 S7        29.90F
$$

LSZ147-162-250500-
LAKE SUPERIOR

STATION/POSITION TIME  TEMP    WIND        PRES    WAVE
                       AIR SEA DIR/SP/G            HT/PER
                 (UTC) (F)     (DEG/KT/KT) (MB)    (FT/S)
W MID LAKE BUOY  0350   51 47  220/ 19/ 23 1004.1F   4/ 5
DEVILS ISLAND    0400   58     240/ 25/ 28 1005.7R
PORT WING        0300   59     200/ 12/ 16 1006.8
SAXON HARBOR     0300   59     200/  9/ 15 1007.1F
$$

LMZ867-665-643>646-250500-
LAKE MICHIGAN

STATION/POSITION TIME  TEMP    WIND        PRES    WAVE
                       AIR SEA DIR/SP/G            HT/PER
                 (UTC) (F)     (DEG/KT/KT) (MB)    (FT/S)
CHAMBERS ISLAND  0340   51     170/  7/ 12 1010.2F
N MID LAKE BUOY  0350   50 51  210/ 19/ 23 1010.0F   5/ 5
NORTHPORT PIER   0300   50     150/  7/ 12 1010.5F
SISTER BAY       0342          170/ 11/ 14   N/A
ALGOMA LAKESHORE 0341          220/ 14/ 16   N/A
KEWAUNEE LAKESHO 0300   51     180/ 10/ 12 1011.0F
SHEBOYGAN LAKESH 0400   52 51  180/ 10/ 11 1012.3F
PORT WASHINGTON  0300   53     200/  3/  6 1013.2F
ATWATER BUOY     0400   53     180/  8/  8 1013.7F
MILWAUKEE LAKESH 0300   53     150/  6/  6   N/A
S MID LAKE BUOY  0350   57 54  200/ 12/ 12 1013.3F   0
KENOSHA   LAKESH 0400   55     180/  5/  6 1013.2F
$$

TC  - TEMPERATURE IN CELSIUS
VSB - VISIBILITY IN STATUTE MILES
WCI - WIND CHILL INDEX
HX  - HEAT INDEX




USA.gov is the U.S. government's official web portal to all federal, state and local government web resources and services.